Time,TemperatureF,DewpointF,PressureIn,WindDirection,WindDirectionDegrees,WindSpeedMPH,WindSpeedGustMPH,Humidity,HourlyPrecipIn,Conditions,Clouds,dailyrainin,SolarRadiationWatts/m^2,SoftwareType,DateUTC
2013-06-14 00:02:00,62.4,54.0,29.87,SW,215,3.0,4.0,74,0.00,,,0.00,0,Wunderground v.1.15,2013-06-14 05:02:00,
2013-06-14 00:07:00,62.8,54.8,29.86,SSE,157,5.0,5.0,75,0.00,,,0.00,0,Wunderground v.1.15,2013-06-14 05:07:00,
2013-06-14 00:13:00,62.8,54.8,29.86,SE,142,4.0,4.0,75,0.00,,,0.00,0,Wunderground v.1.15,2013-06-14 05:13:00,
2013-06-14 00:18:00,62.8,54.8,29.86,ESE,110,1.0,5.0,75,0.00,,,0.00,0,Wunderground v.1.15,2013-06-14 05:18:00,
2013-06-14 00:23:00,62.8,54.8,29.86,ESE,110,0.0,3.0,75,0.00,,,0.00,0,Wunderground v.1.15,2013-06-14 05:23:00,
2013-06-14 00:28:00,63.0,54.9,29.86,ESE,110,2.0,3.0,75,0.00,,,0.00,0,Wunderground v.1.15,2013-06-14 05:28:00,
2013-06-14 00:33:00,63.2,55.5,29.85,ESE,110,4.0,4.0,76,0.00,,,0.00,0,Wunderground v.1.15,2013-06-14 05:33:00,
2013-06-14 00:38:00,63.2,55.9,29.85,ESE,107,3.0,4.0,77,0.00,,,0.00,0,Wunderground v.1.15,2013-06-14 05:38:00,
2013-06-14 00:43:00,63.3,56.0,29.85,ESE,107,3.0,4.0,77,0.00,,,0.00,0,Wunderground v.1.15,2013-06-14 05:43:00,
2013-06-14 00:48:00,63.5,55.4,29.85,ESE,103,4.0,5.0,75,0.00,,,0.00,0,Wunderground v.1.15,2013-06-14 05:48:00,
2013-06-14 00:54:00,63.8,55.4,29.85,East,82,3.0,6.0,74,0.00,,,0.00,0,Wunderground v.1.15,2013-06-14 05:54:00,
2013-06-14 00:59:00,64.0,55.5,29.85,East,82,5.0,6.0,74,0.00,,,0.00,0,Wunderground v.1.15,2013-06-14 05:59:00,
2013-06-14 01:04:00,64.0,55.9,29.85,East,82,5.0,6.0,75,0.00,,,0.00,0,Wunderground v.1.15,2013-06-14 06:04:00,
2013-06-14 01:09:00,63.8,56.1,29.85,East,82,5.0,6.0,76,0.00,,,0.00,0,Wunderground v.1.15,2013-06-14 06:09:00,
2013-06-14 01:15:00,63.6,55.9,29.84,ESE,108,7.0,7.0,76,0.00,,,0.00,0,Wunderground v.1.15,2013-06-14 06:15:00,
2013-06-14 01:20:00,63.8,56.1,29.84,East,98,7.0,7.0,76,0.00,,,0.00,0,Wunderground v.1.15,2013-06-14 06:20:00,
2013-06-14 01:25:00,63.9,55.8,29.84,ESE,107,7.0,9.0,75,0.00,,,0.00,0,Wunderground v.1.15,2013-06-14 06:25:00,
2013-06-14 01:30:00,63.8,55.7,29.83,East,93,8.0,8.0,75,0.00,,,0.00,0,Wunderground v.1.15,2013-06-14 06:30:00,
2013-06-14 01:36:00,63.6,55.9,29.83,ESE,103,8.0,8.0,76,0.00,,,0.00,0,Wunderground v.1.15,2013-06-14 06:36:00,
2013-06-14 01:41:00,63.4,55.7,29.82,East,88,8.0,8.0,76,0.00,,,0.00,0,Wunderground v.1.15,2013-06-14 06:41:00,
2013-06-14 01:46:00,63.4,55.7,29.82,ESE,113,11.0,11.0,76,0.00,,,0.00,0,Wunderground v.1.15,2013-06-14 06:46:00,
2013-06-14 01:51:00,63.4,55.7,29.82,SE,124,9.0,9.0,76,0.00,,,0.00,0,Wunderground v.1.15,2013-06-14 06:51:00,
2013-06-14 01:56:00,63.8,55.7,29.82,ESE,121,5.0,14.0,75,0.00,,,0.00,0,Wunderground v.1.15,2013-06-14 06:56:00,
2013-06-14 02:01:00,64.0,55.5,29.82,ESE,118,7.0,10.0,74,0.00,,,0.00,0,Wunderground v.1.15,2013-06-14 07:01:00,
2013-06-14 02:06:00,64.1,55.6,29.82,SE,138,8.0,16.0,74,0.00,,,0.00,0,Wunderground v.1.15,2013-06-14 07:06:00,
2013-06-14 02:11:00,63.9,55.4,29.81,SE,135,8.0,13.0,74,0.00,,,0.00,0,Wunderground v.1.15,2013-06-14 07:11:00,
2013-06-14 02:16:00,63.7,55.6,29.81,SSE,150,9.0,14.0,75,0.00,,,0.00,0,Wunderground v.1.15,2013-06-14 07:16:00,
2013-06-14 02:21:00,63.8,55.4,29.81,SE,128,12.0,15.0,74,0.00,,,0.00,0,Wunderground v.1.15,2013-06-14 07:21:00,
2013-06-14 02:26:00,63.8,55.4,29.80,SE,130,9.0,15.0,74,0.00,,,0.00,0,Wunderground v.1.15,2013-06-14 07:26:00,
2013-06-14 02:31:00,63.7,55.6,29.79,SE,134,10.0,14.0,75,0.00,,,0.00,0,Wunderground v.1.15,2013-06-14 07:31:00,
2013-06-14 02:36:00,63.6,55.5,29.79,SE,134,10.0,15.0,75,0.00,,,0.00,0,Wunderground v.1.15,2013-06-14 07:36:00,
2013-06-14 02:41:00,63.7,55.6,29.78,SSE,147,15.0,15.0,75,0.00,,,0.00,0,Wunderground v.1.15,2013-06-14 07:41:00,
2013-06-14 02:46:00,63.7,55.3,29.77,SE,125,10.0,16.0,74,0.00,,,0.00,0,Wunderground v.1.15,2013-06-14 07:46:00,
2013-06-14 02:51:00,63.9,55.1,29.75,SE,127,9.0,16.0,73,0.00,,,0.00,0,Wunderground v.1.15,2013-06-14 07:51:00,
2013-06-14 02:56:00,64.0,55.2,29.74,ESE,117,15.0,18.0,73,0.00,,,0.00,0,Wunderground v.1.15,2013-06-14 07:56:00,
2013-06-14 03:01:00,64.2,55.0,29.73,ESE,118,18.0,18.0,72,0.00,,,0.00,0,Wunderground v.1.15,2013-06-14 08:01:00,
2013-06-14 03:06:00,64.5,54.9,29.72,SSE,149,14.0,19.0,71,0.00,,,0.00,0,Wunderground v.1.15,2013-06-14 08:06:00,
2013-06-14 03:11:00,64.7,54.7,29.70,SE,136,9.0,16.0,70,0.00,,,0.00,0,Wunderground v.1.15,2013-06-14 08:11:00,
2013-06-14 03:16:00,65.2,54.4,29.70,SE,144,15.0,23.0,68,0.00,,,0.00,0,Wunderground v.1.15,2013-06-14 08:16:00,
2013-06-14 03:21:00,65.4,54.2,29.69,SSE,157,13.0,22.0,67,0.00,,,0.00,0,Wunderground v.1.15,2013-06-14 08:21:00,
2013-06-14 03:26:00,65.5,54.2,29.69,SE,146,16.0,24.0,67,0.00,,,0.00,0,Wunderground v.1.15,2013-06-14 08:26:00,
2013-06-14 03:31:00,65.6,54.3,29.69,SSE,153,15.0,22.0,67,0.00,,,0.00,0,Wunderground v.1.15,2013-06-14 08:31:00,
2013-06-14 03:36:00,65.8,54.5,29.70,SE,136,14.0,25.0,67,0.00,,,0.00,0,Wunderground v.1.15,2013-06-14 08:36:00,
2013-06-14 03:41:00,65.8,54.5,29.69,SE,144,18.0,22.0,67,0.00,,,0.00,0,Wunderground v.1.15,2013-06-14 08:41:00,
2013-06-14 03:46:00,66.1,54.4,29.69,SE,136,14.0,24.0,66,0.00,,,0.00,0,Wunderground v.1.15,2013-06-14 08:46:00,
2013-06-14 03:51:00,66.1,54.4,29.69,SE,134,20.0,26.0,66,0.00,,,0.00,0,Wunderground v.1.15,2013-06-14 08:51:00,
2013-06-14 03:56:00,66.1,54.4,29.70,SSE,150,17.0,26.0,66,0.00,,,0.00,0,Wunderground v.1.15,2013-06-14 08:56:00,
2013-06-14 04:01:00,66.1,54.4,29.71,SSE,150,17.0,21.0,66,0.00,,,0.00,0,Wunderground v.1.15,2013-06-14 09:01:00,
2013-06-14 04:06:00,65.8,54.5,29.72,SE,136,14.0,21.0,67,0.00,,,0.00,0,Wunderground v.1.15,2013-06-14 09:06:00,
2013-06-14 04:11:00,65.5,54.7,29.71,SSE,155,10.0,17.0,68,0.00,,,0.00,0,Wunderground v.1.15,2013-06-14 09:11:00,
2013-06-14 04:16:00,65.4,54.6,29.72,SE,136,19.0,19.0,68,0.00,,,0.00,0,Wunderground v.1.15,2013-06-14 09:16:00,
2013-06-14 04:21:00,65.4,55.0,29.72,SSE,155,16.0,20.0,69,0.00,,,0.00,0,Wunderground v.1.15,2013-06-14 09:21:00,
2013-06-14 04:26:00,65.3,54.9,29.74,SE,139,12.0,20.0,69,0.00,,,0.00,0,Wunderground v.1.15,2013-06-14 09:26:00,
2013-06-14 04:31:00,65.4,55.0,29.74,SSE,164,15.0,21.0,69,0.00,,,0.00,0,Wunderground v.1.15,2013-06-14 09:31:00,
2013-06-14 04:36:00,65.5,55.1,29.74,SSE,155,17.0,21.0,69,0.00,,,0.00,0,Wunderground v.1.15,2013-06-14 09:36:00,
2013-06-14 04:41:00,65.3,55.3,29.74,SSE,149,13.0,17.0,70,0.00,,,0.00,0,Wunderground v.1.15,2013-06-14 09:41:00,
2013-06-14 04:46:00,65.2,55.2,29.74,SSE,168,14.0,20.0,70,0.00,,,0.00,0,Wunderground v.1.15,2013-06-14 09:46:00,
2013-06-14 04:51:00,65.1,55.1,29.74,SSE,157,14.0,16.0,70,0.00,,,0.00,0,Wunderground v.1.15,2013-06-14 09:51:00,
2013-06-14 04:56:00,64.9,55.3,29.73,SE,146,15.0,19.0,71,0.00,,,0.00,0,Wunderground v.1.15,2013-06-14 09:56:00,
2013-06-14 05:01:00,64.8,55.6,29.73,SSE,153,15.0,18.0,72,0.00,,,0.00,0,Wunderground v.1.15,2013-06-14 10:01:00,
2013-06-14 05:06:00,64.7,55.5,29.72,SE,146,12.0,20.0,72,0.00,,,0.00,0,Wunderground v.1.15,2013-06-14 10:06:00,
2013-06-14 05:11:00,64.6,55.4,29.70,SE,142,11.0,14.0,72,0.00,,,0.00,0,Wunderground v.1.15,2013-06-14 10:11:00,
2013-06-14 05:16:00,64.8,55.6,29.70,SE,141,13.0,19.0,72,0.00,,,0.00,0,Wunderground v.1.15,2013-06-14 10:16:00,
2013-06-14 05:21:00,64.8,55.6,29.71,SE,130,13.0,16.0,72,0.00,,,0.00,0,Wunderground v.1.15,2013-06-14 10:21:00,
2013-06-14 05:26:00,65.0,55.8,29.71,SSE,151,13.0,18.0,72,0.00,,,0.00,0,Wunderground v.1.15,2013-06-14 10:26:00,
2013-06-14 05:31:00,65.2,55.9,29.71,SSE,154,12.0,14.0,72,0.00,,,0.00,0,Wunderground v.1.15,2013-06-14 10:31:00,
2013-06-14 05:36:00,65.4,56.1,29.71,ESE,117,12.0,14.0,72,0.00,,,0.00,0,Wunderground v.1.15,2013-06-14 10:36:00,
2013-06-14 05:41:00,65.5,55.8,29.70,SE,143,16.0,17.0,71,0.00,,,0.00,0,Wunderground v.1.15,2013-06-14 10:41:00,
2013-06-14 05:46:00,65.7,56.0,29.68,East,93,19.0,22.0,71,0.00,,,0.00,0,Wunderground v.1.15,2013-06-14 10:46:00,
2013-06-14 05:51:00,65.5,56.2,29.67,SE,126,11.0,24.0,72,0.00,,,0.00,0,Wunderground v.1.15,2013-06-14 10:51:00,
2013-06-14 05:56:00,65.6,56.3,29.66,East,101,22.0,24.0,72,0.00,,,0.00,0,Wunderground v.1.15,2013-06-14 10:56:00,
2013-06-14 06:01:00,65.4,56.5,29.67,ESE,109,14.0,17.0,73,0.00,,,0.00,0,Wunderground v.1.15,2013-06-14 11:01:00,
2013-06-14 06:06:00,65.2,56.7,29.66,SE,126,17.0,21.0,74,0.00,,,0.00,0,Wunderground v.1.15,2013-06-14 11:06:00,
2013-06-14 06:11:00,65.1,56.6,29.65,SE,130,10.0,15.0,74,0.00,,,0.00,0,Wunderground v.1.15,2013-06-14 11:11:00,
2013-06-14 06:16:00,65.0,56.9,29.65,ESE,102,23.0,23.0,75,0.00,,,0.00,5,Wunderground v.1.15,2013-06-14 11:16:00,
2013-06-14 06:21:00,65.1,57.0,29.64,East,86,13.0,16.0,75,0.00,,,0.00,9,Wunderground v.1.15,2013-06-14 11:21:00,
2013-06-14 06:26:00,65.2,57.4,29.65,ESE,114,12.0,19.0,76,0.00,,,0.00,12,Wunderground v.1.15,2013-06-14 11:26:00,
2013-06-14 06:31:00,65.1,57.3,29.64,ESE,122,13.0,16.0,76,0.00,,,0.00,16,Wunderground v.1.15,2013-06-14 11:31:00,
2013-06-14 06:36:00,65.3,57.5,29.65,ESE,115,16.0,19.0,76,0.00,,,0.00,19,Wunderground v.1.15,2013-06-14 11:36:00,
2013-06-14 06:41:00,65.3,57.9,29.64,SE,124,11.0,16.0,77,0.00,,,0.00,23,Wunderground v.1.15,2013-06-14 11:41:00,
2013-06-14 06:46:00,65.3,57.9,29.64,ESE,122,15.0,19.0,77,0.00,,,0.00,26,Wunderground v.1.15,2013-06-14 11:46:00,
2013-06-14 06:51:00,65.4,58.0,29.64,ESE,105,8.0,14.0,77,0.00,,,0.00,30,Wunderground v.1.15,2013-06-14 11:51:00,
2013-06-14 06:56:00,65.4,58.0,29.64,ESE,117,14.0,17.0,77,0.00,,,0.00,35,Wunderground v.1.15,2013-06-14 11:56:00,
2013-06-14 07:01:00,65.2,58.2,29.65,SE,141,11.0,19.0,78,0.00,,,0.00,40,Wunderground v.1.15,2013-06-14 12:01:00,
2013-06-14 07:06:00,65.2,58.5,29.66,SE,133,12.0,21.0,79,0.00,,,0.00,51,Wunderground v.1.15,2013-06-14 12:06:00,
2013-06-14 07:11:00,65.0,58.3,29.66,SE,131,11.0,17.0,79,0.00,,,0.00,65,Wunderground v.1.15,2013-06-14 12:11:00,
2013-06-14 07:16:00,65.1,58.8,29.66,ESE,120,17.0,18.0,80,0.00,,,0.00,81,Wunderground v.1.15,2013-06-14 12:16:00,
2013-06-14 07:21:00,65.3,59.0,29.65,SE,138,14.0,25.0,80,0.00,,,0.00,91,Wunderground v.1.15,2013-06-14 12:21:00,
2013-06-14 07:27:00,65.5,59.2,29.65,SSE,152,11.0,25.0,80,0.00,,,0.00,97,Wunderground v.1.15,2013-06-14 12:27:00,
2013-06-14 07:32:00,65.6,59.3,29.65,ESE,117,14.0,14.0,80,0.00,,,0.00,98,Wunderground v.1.15,2013-06-14 12:32:00,
2013-06-14 07:37:00,65.6,59.6,29.65,SE,144,14.0,14.0,81,0.00,,,0.00,100,Wunderground v.1.15,2013-06-14 12:37:00,
2013-06-14 07:42:00,65.6,59.6,29.65,SE,145,10.0,16.0,81,0.00,,,0.00,100,Wunderground v.1.15,2013-06-14 12:42:00,
2013-06-14 07:48:00,65.8,59.8,29.65,SE,146,13.0,16.0,81,0.00,,,0.00,107,Wunderground v.1.15,2013-06-14 12:48:00,
2013-06-14 07:53:00,65.8,59.8,29.65,SE,138,10.0,15.0,81,0.00,,,0.00,120,Wunderground v.1.15,2013-06-14 12:53:00,
2013-06-14 07:58:00,66.0,60.3,29.65,SE,146,17.0,19.0,82,0.00,,,0.00,132,Wunderground v.1.15,2013-06-14 12:58:00,
2013-06-14 08:03:00,66.1,60.4,29.65,SE,139,13.0,24.0,82,0.00,,,0.00,141,Wunderground v.1.15,2013-06-14 13:03:00,
2013-06-14 08:08:00,66.1,60.4,29.65,SE,142,15.0,24.0,82,0.00,,,0.00,151,Wunderground v.1.15,2013-06-14 13:08:00,
2013-06-14 08:13:00,66.3,60.6,29.65,SE,126,13.0,17.0,82,0.00,,,0.00,146,Wunderground v.1.15,2013-06-14 13:13:00,
2013-06-14 08:18:00,66.4,60.7,29.65,SSE,154,17.0,22.0,82,0.00,,,0.00,132,Wunderground v.1.15,2013-06-14 13:18:00,
2013-06-14 08:23:00,66.5,60.8,29.63,SE,138,15.0,24.0,82,0.00,,,0.00,146,Wunderground v.1.15,2013-06-14 13:23:00,
2013-06-14 08:28:00,66.6,60.9,29.63,SE,140,23.0,24.0,82,0.00,,,0.00,134,Wunderground v.1.15,2013-06-14 13:28:00,
2013-06-14 08:33:00,66.7,61.0,29.63,SE,134,16.0,21.0,82,0.00,,,0.00,113,Wunderground v.1.15,2013-06-14 13:33:00,
2013-06-14 08:38:00,66.6,60.9,29.63,SE,146,16.0,24.0,82,0.00,,,0.00,62,Wunderground v.1.15,2013-06-14 13:38:00,
2013-06-14 08:43:00,66.6,61.3,29.63,SE,126,12.0,20.0,83,0.00,,,0.00,102,Wunderground v.1.15,2013-06-14 13:43:00,
2013-06-14 08:48:00,66.6,61.3,29.62,SSE,148,13.0,20.0,83,0.00,,,0.00,130,Wunderground v.1.15,2013-06-14 13:48:00,
2013-06-14 08:53:00,66.7,61.4,29.63,SE,130,9.0,22.0,83,0.00,,,0.00,153,Wunderground v.1.15,2013-06-14 13:53:00,
2013-06-14 08:58:00,66.8,61.5,29.63,SSE,150,15.0,22.0,83,0.00,,,0.00,167,Wunderground v.1.15,2013-06-14 13:58:00,
2013-06-14 09:03:00,67.0,61.7,29.63,SSE,155,14.0,16.0,83,0.00,,,0.00,167,Wunderground v.1.15,2013-06-14 14:03:00,
2013-06-14 09:08:00,67.2,61.5,29.63,SSE,157,16.0,19.0,82,0.00,,,0.00,171,Wunderground v.1.15,2013-06-14 14:08:00,
2013-06-14 09:13:00,67.3,62.0,29.63,SE,142,15.0,21.0,83,0.00,,,0.00,199,Wunderground v.1.15,2013-06-14 14:13:00,
2013-06-14 09:18:00,67.8,62.4,29.63,SE,145,14.0,21.0,83,0.00,,,0.00,424,Wunderground v.1.15,2013-06-14 14:18:00,
2013-06-14 09:23:00,67.7,62.0,29.63,SSE,153,18.0,19.0,82,0.00,,,0.00,199,Wunderground v.1.15,2013-06-14 14:23:00,
2013-06-14 09:28:00,67.7,62.0,29.63,SE,134,11.0,23.0,82,0.00,,,0.00,220,Wunderground v.1.15,2013-06-14 14:28:00,
2013-06-14 09:33:00,67.8,62.1,29.63,SSE,155,13.0,20.0,82,0.00,,,0.00,223,Wunderground v.1.15,2013-06-14 14:33:00,
2013-06-14 09:38:00,68.1,62.4,29.63,SSE,150,17.0,20.0,82,0.00,,,0.00,241,Wunderground v.1.15,2013-06-14 14:38:00,
2013-06-14 09:43:00,68.3,62.6,29.63,SSE,158,10.0,17.0,82,0.00,,,0.00,248,Wunderground v.1.15,2013-06-14 14:43:00,
2013-06-14 09:48:00,68.9,63.2,29.63,SE,142,18.0,19.0,82,0.00,,,0.00,473,Wunderground v.1.15,2013-06-14 14:48:00,
2013-06-14 09:53:00,69.2,63.1,29.63,SSE,165,11.0,18.0,81,0.00,,,0.00,311,Wunderground v.1.15,2013-06-14 14:53:00,
2013-06-14 09:58:00,69.9,63.8,29.63,SSE,165,9.0,18.0,81,0.00,,,0.00,650,Wunderground v.1.15,2013-06-14 14:58:00,
2013-06-14 10:03:00,70.6,64.1,29.63,SSE,150,12.0,20.0,80,0.00,,,0.00,621,Wunderground v.1.15,2013-06-14 15:03:00,
2013-06-14 10:08:00,71.1,64.3,29.63,SE,141,7.0,20.0,79,0.00,,,0.00,617,Wunderground v.1.15,2013-06-14 15:08:00,
2013-06-14 10:13:00,71.7,64.8,29.63,SSE,148,12.0,17.0,79,0.00,,,0.00,650,Wunderground v.1.15,2013-06-14 15:13:00,
2013-06-14 10:18:00,72.2,65.0,29.63,SSE,147,12.0,17.0,78,0.00,,,0.00,606,Wunderground v.1.15,2013-06-14 15:18:00,
2013-06-14 10:23:00,72.4,64.8,29.62,SSE,162,18.0,19.0,77,0.00,,,0.00,715,Wunderground v.1.15,2013-06-14 15:23:00,
2013-06-14 10:28:00,72.6,65.3,29.62,South,173,11.0,19.0,78,0.00,,,0.00,721,Wunderground v.1.15,2013-06-14 15:28:00,
2013-06-14 10:33:00,73.2,65.6,29.61,SSE,161,15.0,19.0,77,0.00,,,0.00,724,Wunderground v.1.15,2013-06-14 15:33:00,
2013-06-14 10:38:00,73.5,65.5,29.61,South,180,12.0,23.0,76,0.00,,,0.00,735,Wunderground v.1.15,2013-06-14 15:38:00,
2013-06-14 10:43:00,73.6,65.6,29.61,SSE,155,17.0,24.0,76,0.00,,,0.00,744,Wunderground v.1.15,2013-06-14 15:43:00,
2013-06-14 10:48:00,74.2,66.5,29.61,SSE,153,18.0,24.0,77,0.00,,,0.00,756,Wunderground v.1.15,2013-06-14 15:48:00,
2013-06-14 10:53:00,74.4,66.3,29.60,South,175,12.0,20.0,76,0.00,,,0.00,773,Wunderground v.1.15,2013-06-14 15:53:00,
2013-06-14 10:58:00,74.8,66.3,29.60,SSE,149,17.0,20.0,75,0.00,,,0.00,782,Wunderground v.1.15,2013-06-14 15:58:00,
2013-06-14 11:03:00,75.3,66.8,29.60,South,173,17.0,21.0,75,0.00,,,0.00,795,Wunderground v.1.15,2013-06-14 16:03:00,
2013-06-14 11:08:00,75.8,66.9,29.60,South,178,17.0,21.0,74,0.00,,,0.00,798,Wunderground v.1.15,2013-06-14 16:08:00,
2013-06-14 11:13:00,76.0,67.1,29.60,South,183,13.0,19.0,74,0.00,,,0.00,821,Wunderground v.1.15,2013-06-14 16:13:00,
2013-06-14 11:18:00,76.4,67.5,29.60,South,173,14.0,22.0,74,0.00,,,0.00,780,Wunderground v.1.15,2013-06-14 16:18:00,
2013-06-14 11:23:00,76.6,67.3,29.60,SSE,155,15.0,19.0,73,0.00,,,0.00,830,Wunderground v.1.15,2013-06-14 16:23:00,
2013-06-14 11:28:00,77.0,67.7,29.62,SSW,192,12.0,19.0,73,0.00,,,0.00,830,Wunderground v.1.15,2013-06-14 16:28:00,
2013-06-14 11:33:00,77.3,68.0,29.65,SW,219,8.0,13.0,73,0.00,,,0.00,856,Wunderground v.1.15,2013-06-14 16:33:00,
2013-06-14 11:38:00,77.9,68.9,29.62,South,171,16.0,16.0,74,0.00,,,0.00,886,Wunderground v.1.15,2013-06-14 16:38:00,
2013-06-14 11:43:00,78.5,68.7,29.63,SSW,208,7.0,19.0,72,0.00,,,0.00,28,Wunderground v.1.15,2013-06-14 16:43:00,
2013-06-14 11:48:00,78.9,69.1,29.62,SSW,193,13.0,19.0,72,0.00,,,0.00,925,Wunderground v.1.15,2013-06-14 16:48:00,
2013-06-14 11:53:00,79.4,69.2,29.63,South,188,9.0,20.0,71,0.00,,,0.00,935,Wunderground v.1.15,2013-06-14 16:53:00,
2013-06-14 11:58:00,79.7,69.9,29.62,SSW,202,7.0,20.0,72,0.00,,,0.00,710,Wunderground v.1.15,2013-06-14 16:58:00,
2013-06-14 12:03:00,80.5,70.6,29.62,South,189,14.0,16.0,72,0.00,,,0.00,798,Wunderground v.1.15,2013-06-14 17:03:00,
2013-06-14 12:08:00,81.0,70.7,29.61,SW,228,9.0,21.0,71,0.00,,,0.00,744,Wunderground v.1.15,2013-06-14 17:08:00,
2013-06-14 12:13:00,81.3,69.3,29.61,SW,232,5.0,14.0,67,0.00,,,0.00,707,Wunderground v.1.15,2013-06-14 17:13:00,
2013-06-14 12:18:00,82.0,70.4,29.61,SSW,208,11.0,18.0,68,0.00,,,0.00,967,Wunderground v.1.15,2013-06-14 17:18:00,
2013-06-14 12:23:00,82.4,69.9,29.61,SW,219,14.0,17.0,66,0.00,,,0.00,598,Wunderground v.1.15,2013-06-14 17:23:00,
2013-06-14 12:28:00,82.3,70.2,29.61,SW,217,14.0,17.0,67,0.00,,,0.00,615,Wunderground v.1.15,2013-06-14 17:28:00,
2013-06-14 12:33:00,82.4,71.2,29.60,SW,217,13.0,14.0,69,0.00,,,0.00,960,Wunderground v.1.15,2013-06-14 17:33:00,
2013-06-14 12:38:00,83.3,71.6,29.60,South,189,14.0,14.0,68,0.00,,,0.00,831,Wunderground v.1.15,2013-06-14 17:38:00,
2013-06-14 12:43:00,83.4,71.7,29.60,SSW,199,18.0,20.0,68,0.00,,,0.00,976,Wunderground v.1.15,2013-06-14 17:43:00,
2013-06-14 12:48:00,83.3,70.8,29.60,SW,217,15.0,20.0,66,0.00,,,0.00,926,Wunderground v.1.15,2013-06-14 17:48:00,
2013-06-14 12:53:00,83.3,71.6,29.60,SW,223,11.0,18.0,68,0.00,,,0.00,947,Wunderground v.1.15,2013-06-14 17:53:00,
2013-06-14 12:58:00,83.2,71.1,29.60,SSW,202,11.0,18.0,67,0.00,,,0.00,654,Wunderground v.1.15,2013-06-14 17:58:00,
2013-06-14 13:03:00,83.3,69.8,29.60,SSW,205,7.0,20.0,64,0.00,,,0.00,1062,Wunderground v.1.15,2013-06-14 18:03:00,
2013-06-14 13:09:00,83.7,71.1,29.60,SW,217,6.0,20.0,66,0.00,,,0.00,1088,Wunderground v.1.15,2013-06-14 18:09:00,
2013-06-14 13:14:00,83.7,70.7,29.60,SSW,206,9.0,15.0,65,0.00,,,0.00,425,Wunderground v.1.15,2013-06-14 18:14:00,
2013-06-14 13:19:00,82.5,70.4,29.60,SSW,206,15.0,19.0,67,0.00,,,0.00,555,Wunderground v.1.15,2013-06-14 18:19:00,
2013-06-14 13:24:00,82.4,69.4,29.60,SW,224,14.0,22.0,65,0.00,,,0.00,513,Wunderground v.1.15,2013-06-14 18:24:00,
2013-06-14 13:29:00,83.3,70.8,29.60,WSW,249,12.0,22.0,66,0.00,,,0.00,1013,Wunderground v.1.15,2013-06-14 18:29:00,
2013-06-14 13:34:00,83.8,70.8,29.60,SSW,198,9.0,20.0,65,0.00,,,0.00,457,Wunderground v.1.15,2013-06-14 18:34:00,
2013-06-14 13:39:00,83.1,69.7,29.60,SSW,204,8.0,21.0,64,0.00,,,0.00,492,Wunderground v.1.15,2013-06-14 18:39:00,
2013-06-14 13:44:00,82.6,70.5,29.60,SW,235,11.0,23.0,67,0.00,,,0.00,552,Wunderground v.1.15,2013-06-14 18:44:00,
2013-06-14 13:49:00,83.2,71.1,29.60,SW,221,17.0,23.0,67,0.00,,,0.00,935,Wunderground v.1.15,2013-06-14 18:49:00,
2013-06-14 13:54:00,84.0,71.0,29.60,WSW,237,7.0,20.0,65,0.00,,,0.00,1014,Wunderground v.1.15,2013-06-14 18:54:00,
2013-06-14 13:59:00,84.5,71.0,29.60,SW,232,11.0,20.0,64,0.00,,,0.00,1055,Wunderground v.1.15,2013-06-14 18:59:00,
2013-06-14 14:04:00,84.1,70.1,29.60,WSW,248,7.0,14.0,63,0.00,,,0.00,422,Wunderground v.1.15,2013-06-14 19:04:00,
2013-06-14 14:09:00,83.8,69.4,29.59,WSW,245,4.0,14.0,62,0.00,,,0.00,441,Wunderground v.1.15,2013-06-14 19:09:00,
2013-06-14 14:14:00,83.9,70.0,29.59,SW,219,4.0,6.0,63,0.00,,,0.00,478,Wunderground v.1.15,2013-06-14 19:14:00,
2013-06-14 14:19:00,84.8,70.8,29.58,SW,215,5.0,7.0,63,0.00,,,0.00,459,Wunderground v.1.15,2013-06-14 19:19:00,
2013-06-14 14:24:00,84.6,70.6,29.58,WSW,250,3.0,7.0,63,0.00,,,0.00,580,Wunderground v.1.15,2013-06-14 19:24:00,
2013-06-14 14:29:00,84.8,70.8,29.58,WSW,242,3.0,7.0,63,0.00,,,0.00,953,Wunderground v.1.15,2013-06-14 19:29:00,
2013-06-14 14:34:00,85.5,72.8,29.59,SW,236,5.0,9.0,66,0.00,,,0.00,1179,Wunderground v.1.15,2013-06-14 19:34:00,
2013-06-14 14:39:00,85.4,70.4,29.59,SSW,208,11.0,12.0,61,0.00,,,0.00,417,Wunderground v.1.15,2013-06-14 19:39:00,
2013-06-14 14:44:00,84.7,71.2,29.58,SW,221,10.0,19.0,64,0.00,,,0.00,1111,Wunderground v.1.15,2013-06-14 19:44:00,
2013-06-14 14:49:00,84.9,71.4,29.59,SSW,195,9.0,19.0,64,0.00,,,0.00,383,Wunderground v.1.15,2013-06-14 19:49:00,
2013-06-14 14:54:00,84.4,70.9,29.59,SW,223,7.0,18.0,64,0.00,,,0.00,585,Wunderground v.1.15,2013-06-14 19:54:00,
2013-06-14 14:59:00,84.4,70.9,29.59,SW,223,5.0,18.0,64,0.00,,,0.00,401,Wunderground v.1.15,2013-06-14 19:59:00,
2013-06-14 15:04:00,85.4,68.9,29.59,WSW,241,5.0,12.0,58,0.00,,,0.00,1058,Wunderground v.1.15,2013-06-14 20:04:00,
2013-06-14 15:09:00,86.5,71.5,29.58,WSW,250,5.0,12.0,61,0.00,,,0.00,958,Wunderground v.1.15,2013-06-14 20:09:00,
2013-06-14 15:14:00,87.2,71.1,29.59,West,263,12.0,12.0,59,0.00,,,0.00,953,Wunderground v.1.15,2013-06-14 20:14:00,
2013-06-14 15:20:00,86.7,70.2,29.58,SSW,203,3.0,13.0,58,0.00,,,0.00,993,Wunderground v.1.15,2013-06-14 20:20:00,
2013-06-14 15:25:00,86.7,70.7,29.58,SW,228,3.0,14.0,59,0.00,,,0.00,993,Wunderground v.1.15,2013-06-14 20:25:00,
2013-06-14 15:29:00,86.9,69.8,29.58,West,259,6.0,14.0,57,0.00,,,0.00,1004,Wunderground v.1.15,2013-06-14 20:29:00,
2013-06-14 15:34:00,87.4,70.3,29.58,SW,219,5.0,12.0,57,0.00,,,0.00,993,Wunderground v.1.15,2013-06-14 20:34:00,
2013-06-14 15:40:00,88.1,71.5,29.58,West,264,8.0,12.0,58,0.00,,,0.00,888,Wunderground v.1.15,2013-06-14 20:40:00,
2013-06-14 15:45:00,88.7,69.4,29.58,SW,229,6.0,10.0,53,0.00,,,0.00,944,Wunderground v.1.15,2013-06-14 20:45:00,
2013-06-14 15:50:00,88.5,71.3,29.58,WSW,244,4.0,10.0,57,0.00,,,0.00,791,Wunderground v.1.15,2013-06-14 20:50:00,
2013-06-14 15:55:00,88.7,71.5,29.58,WNW,294,5.0,10.0,57,0.00,,,0.00,888,Wunderground v.1.15,2013-06-14 20:55:00,
2013-06-14 16:00:00,88.3,70.6,29.58,SSW,213,5.0,10.0,56,0.00,,,0.00,773,Wunderground v.1.15,2013-06-14 21:00:00,
2013-06-14 16:05:00,88.1,69.4,29.58,West,281,3.0,12.0,54,0.00,,,0.00,795,Wunderground v.1.15,2013-06-14 21:05:00,
2013-06-14 16:10:00,88.6,70.4,29.58,West,260,6.0,12.0,55,0.00,,,0.00,775,Wunderground v.1.15,2013-06-14 21:10:00,
2013-06-14 16:15:00,88.7,69.4,29.57,WNW,287,6.0,12.0,53,0.00,,,0.00,809,Wunderground v.1.15,2013-06-14 21:15:00,
2013-06-14 16:20:00,89.1,69.2,29.57,West,267,1.0,5.0,52,0.00,,,0.00,789,Wunderground v.1.15,2013-06-14 21:20:00,
2013-06-14 16:25:00,89.0,69.6,29.57,NW,306,3.0,9.0,53,0.00,,,0.00,775,Wunderground v.1.15,2013-06-14 21:25:00,
2013-06-14 16:30:00,89.2,70.4,29.57,WSW,250,1.0,4.0,54,0.00,,,0.00,768,Wunderground v.1.15,2013-06-14 21:30:00,
2013-06-14 16:35:00,89.6,69.6,29.56,WNW,302,4.0,7.0,52,0.00,,,0.00,772,Wunderground v.1.15,2013-06-14 21:35:00,
2013-06-14 16:40:00,89.5,70.1,29.56,WNW,302,0.0,2.0,53,0.00,,,0.00,554,Wunderground v.1.15,2013-06-14 21:40:00,
2013-06-14 16:45:00,88.5,71.3,29.56,West,268,4.0,5.0,57,0.00,,,0.00,752,Wunderground v.1.15,2013-06-14 21:45:00,
2013-06-14 16:50:00,87.7,69.5,29.56,SSW,208,6.0,6.0,55,0.00,,,0.00,548,Wunderground v.1.15,2013-06-14 21:50:00,
2013-06-14 16:55:00,87.0,70.9,29.56,SSW,213,3.0,11.0,59,0.00,,,0.01,612,Wunderground v.1.15,2013-06-14 21:55:00,
2013-06-14 17:00:00,87.5,70.9,29.56,WSW,240,3.0,4.0,58,0.00,,,0.01,687,Wunderground v.1.15,2013-06-14 22:00:00,
2013-06-14 17:05:00,88.5,70.3,29.56,WNW,302,8.0,8.0,55,0.00,,,0.01,654,Wunderground v.1.15,2013-06-14 22:05:00,
2013-06-14 17:10:00,89.2,72.0,29.56,NW,306,2.0,4.0,57,0.00,,,0.01,654,Wunderground v.1.15,2013-06-14 22:10:00,
2013-06-14 17:15:00,89.8,70.9,29.56,WNW,294,3.0,9.0,54,0.00,,,0.01,642,Wunderground v.1.15,2013-06-14 22:15:00,
2013-06-14 17:20:00,89.9,69.3,29.56,WNW,286,3.0,4.0,51,0.00,,,0.01,629,Wunderground v.1.15,2013-06-14 22:20:00,
2013-06-14 17:25:00,90.4,69.8,29.56,West,281,6.0,7.0,51,0.00,,,0.01,617,Wunderground v.1.15,2013-06-14 22:25:00,
2013-06-14 17:30:00,90.3,70.3,29.56,WNW,285,2.0,3.0,52,0.00,,,0.01,512,Wunderground v.1.15,2013-06-14 22:30:00,
2013-06-14 17:35:00,90.3,68.5,29.56,WNW,285,0.0,5.0,49,0.00,,,0.01,608,Wunderground v.1.15,2013-06-14 22:35:00,
2013-06-14 17:40:00,90.7,70.1,29.56,WNW,285,2.0,3.0,51,0.00,,,0.01,608,Wunderground v.1.15,2013-06-14 22:40:00,
2013-06-14 17:45:00,91.0,69.2,29.56,WNW,295,4.0,7.0,49,0.00,,,0.01,461,Wunderground v.1.15,2013-06-14 22:45:00,
2013-06-14 17:50:00,90.9,70.8,29.56,WNW,295,0.0,3.0,52,0.00,,,0.01,394,Wunderground v.1.15,2013-06-14 22:50:00,
2013-06-14 17:55:00,90.4,71.5,29.56,WNW,295,3.0,4.0,54,0.00,,,0.01,334,Wunderground v.1.15,2013-06-14 22:55:00,
2013-06-14 18:00:00,90.2,70.8,29.55,WNW,295,0.0,1.0,53,0.00,,,0.01,288,Wunderground v.1.15,2013-06-14 23:00:00,
2013-06-14 18:05:00,89.8,70.4,29.55,WNW,295,1.0,4.0,53,0.00,,,0.01,281,Wunderground v.1.15,2013-06-14 23:05:00,
2013-06-14 18:10:00,89.2,69.8,29.55,WNW,295,0.0,2.0,53,0.00,,,0.01,262,Wunderground v.1.15,2013-06-14 23:10:00,
2013-06-14 18:15:00,88.7,71.5,29.54,WNW,295,0.0,2.0,57,0.00,,,0.01,253,Wunderground v.1.15,2013-06-14 23:15:00,
2013-06-14 18:20:00,88.7,71.0,29.54,WNW,295,0.0,0.0,56,0.00,,,0.01,250,Wunderground v.1.15,2013-06-14 23:20:00,
2013-06-14 18:25:00,88.6,69.8,29.54,WNW,297,2.0,4.0,54,0.00,,,0.01,250,Wunderground v.1.15,2013-06-14 23:25:00,
2013-06-14 18:30:00,88.4,71.2,29.53,WNW,296,0.0,1.0,57,0.00,,,0.01,236,Wunderground v.1.15,2013-06-14 23:30:00,
2013-06-14 18:35:00,88.3,72.7,29.53,WNW,297,0.0,1.0,60,0.00,,,0.01,221,Wunderground v.1.15,2013-06-14 23:35:00,
2013-06-14 18:40:00,88.1,73.0,29.53,WNW,296,2.0,2.0,61,0.00,,,0.01,204,Wunderground v.1.15,2013-06-14 23:40:00,
2013-06-14 18:45:00,87.6,73.0,29.52,WNW,297,0.0,3.0,62,0.00,,,0.01,192,Wunderground v.1.15,2013-06-14 23:45:00,
2013-06-14 18:50:00,87.2,72.6,29.52,WNW,296,0.0,1.0,62,0.00,,,0.01,192,Wunderground v.1.15,2013-06-14 23:50:00,
2013-06-14 18:55:00,87.0,72.9,29.51,WNW,296,2.0,3.0,63,0.00,,,0.01,209,Wunderground v.1.15,2013-06-14 23:55:00,
2013-06-14 19:00:00,86.9,71.8,29.51,WNW,297,1.0,1.0,61,0.00,,,0.01,160,Wunderground v.1.15,2013-06-15 00:00:00,
2013-06-14 19:05:00,87.0,71.4,29.51,WNW,297,1.0,4.0,60,0.00,,,0.01,144,Wunderground v.1.15,2013-06-15 00:05:00,
2013-06-14 19:10:00,86.9,71.3,29.51,WNW,296,0.0,1.0,60,0.00,,,0.01,98,Wunderground v.1.15,2013-06-15 00:10:00,
2013-06-14 19:15:00,86.8,71.2,29.52,WNW,297,0.0,3.0,60,0.00,,,0.01,130,Wunderground v.1.15,2013-06-15 00:15:00,
2013-06-14 19:20:00,86.7,72.6,29.52,WNW,297,0.0,0.0,63,0.00,,,0.01,109,Wunderground v.1.15,2013-06-15 00:20:00,
2013-06-14 19:25:00,86.3,72.2,29.52,WNW,296,0.0,1.0,63,0.00,,,0.01,90,Wunderground v.1.15,2013-06-15 00:25:00,
2013-06-14 19:30:00,86.0,71.5,29.52,WNW,296,0.0,1.0,62,0.00,,,0.01,65,Wunderground v.1.15,2013-06-15 00:30:00,
2013-06-14 19:35:00,85.5,71.9,29.53,WNW,297,0.0,1.0,64,0.00,,,0.01,58,Wunderground v.1.15,2013-06-15 00:35:00,
2013-06-14 19:40:00,85.2,71.2,29.54,WNW,297,0.0,0.0,63,0.00,,,0.01,58,Wunderground v.1.15,2013-06-15 00:40:00,
2013-06-14 19:45:00,84.7,74.7,29.56,WNW,297,1.0,1.0,72,0.00,,,0.01,83,Wunderground v.1.15,2013-06-15 00:45:00,
2013-06-14 19:50:00,83.2,72.8,29.56,WNW,297,1.0,1.0,71,0.00,,,0.01,104,Wunderground v.1.15,2013-06-15 00:50:00,
2013-06-14 19:55:00,83.2,72.8,29.57,WNW,296,1.0,2.0,71,0.00,,,0.01,58,Wunderground v.1.15,2013-06-15 00:55:00,
2013-06-14 20:00:00,83.0,72.2,29.58,NW,314,4.0,5.0,70,0.00,,,0.01,49,Wunderground v.1.15,2013-06-15 01:00:00,
2013-06-14 20:05:00,83.0,71.8,29.59,SW,232,8.0,8.0,69,0.00,,,0.01,35,Wunderground v.1.15,2013-06-15 01:05:00,
2013-06-14 20:10:00,77.2,60.8,29.61,SSW,198,20.0,22.0,57,0.00,,,0.01,16,Wunderground v.1.15,2013-06-15 01:10:00,
2013-06-14 20:15:00,72.7,59.8,29.61,South,188,18.0,27.0,64,0.00,,,0.01,14,Wunderground v.1.15,2013-06-15 01:15:00,
2013-06-14 20:20:00,70.9,59.0,29.60,SSW,198,27.0,33.0,66,0.00,,,0.01,26,Wunderground v.1.15,2013-06-15 01:20:00,
2013-06-14 20:25:00,70.4,58.9,29.61,South,184,25.0,36.0,67,0.00,,,0.01,40,Wunderground v.1.15,2013-06-15 01:25:00,
2013-06-14 20:30:00,70.3,59.2,29.61,South,182,14.0,22.0,68,0.00,,,0.01,53,Wunderground v.1.15,2013-06-15 01:30:00,
2013-06-14 20:35:00,70.2,59.1,29.61,South,182,11.0,22.0,68,0.00,,,0.01,60,Wunderground v.1.15,2013-06-15 01:35:00,
2013-06-14 20:40:00,70.2,59.1,29.61,South,180,10.0,12.0,68,0.00,,,0.01,46,Wunderground v.1.15,2013-06-15 01:40:00,
2013-06-14 20:45:00,70.1,59.5,29.61,SSW,209,10.0,17.0,69,0.00,,,0.01,33,Wunderground v.1.15,2013-06-15 01:45:00,
2013-06-14 20:50:00,69.9,58.9,29.62,SSW,201,9.0,11.0,68,0.00,,,0.01,30,Wunderground v.1.15,2013-06-15 01:50:00,
2013-06-14 20:55:00,69.7,59.1,29.61,SSW,202,8.0,13.0,69,0.00,,,0.01,21,Wunderground v.1.15,2013-06-15 01:55:00,
2013-06-14 21:00:00,69.3,59.1,29.61,SSW,195,8.0,9.0,70,0.00,,,0.01,16,Wunderground v.1.15,2013-06-15 02:00:00,
2013-06-14 21:05:00,69.0,59.2,29.61,SW,218,5.0,10.0,71,0.00,,,0.01,19,Wunderground v.1.15,2013-06-15 02:05:00,
2013-06-14 21:10:00,68.9,59.5,29.61,SSW,201,7.0,7.0,72,0.00,,,0.01,25,Wunderground v.1.15,2013-06-15 02:10:00,
2013-06-14 21:15:00,68.7,59.7,29.61,SSW,202,6.0,7.0,73,0.00,,,0.01,21,Wunderground v.1.15,2013-06-15 02:15:00,
2013-06-14 21:20:00,68.4,59.4,29.62,SSW,202,4.0,5.0,73,0.00,,,0.01,12,Wunderground v.1.15,2013-06-15 02:20:00,
2013-06-14 21:25:00,68.4,59.8,29.61,SW,215,3.0,6.0,74,0.00,,,0.01,0,Wunderground v.1.15,2013-06-15 02:25:00,
2013-06-14 21:30:00,68.1,59.9,29.61,SW,215,4.0,4.0,75,0.00,,,0.01,0,Wunderground v.1.15,2013-06-15 02:30:00,
2013-06-14 21:35:00,67.8,59.6,29.61,SW,215,3.0,5.0,75,0.00,,,0.01,0,Wunderground v.1.15,2013-06-15 02:35:00,
2013-06-14 21:40:00,67.6,59.8,29.61,SW,216,3.0,3.0,76,0.00,,,0.01,0,Wunderground v.1.15,2013-06-15 02:40:00,
2013-06-14 21:45:00,67.5,59.7,29.61,SW,216,3.0,5.0,76,0.00,,,0.01,0,Wunderground v.1.15,2013-06-15 02:45:00,
2013-06-14 21:50:00,67.5,60.0,29.62,SW,216,0.0,3.0,77,0.00,,,0.01,0,Wunderground v.1.15,2013-06-15 02:50:00,
2013-06-14 21:55:00,67.5,60.0,29.62,SW,216,0.0,3.0,77,0.00,,,0.01,0,Wunderground v.1.15,2013-06-15 02:55:00,
2013-06-14 22:00:00,67.4,59.9,29.62,SW,216,0.0,0.0,77,0.00,,,0.01,0,Wunderground v.1.15,2013-06-15 03:00:00,
2013-06-14 22:05:00,67.3,59.8,29.62,SW,216,1.0,1.0,77,0.00,,,0.01,0,Wunderground v.1.15,2013-06-15 03:05:00,
2013-06-14 22:10:00,67.4,60.3,29.62,SW,216,0.0,0.0,78,0.00,,,0.01,0,Wunderground v.1.15,2013-06-15 03:10:00,
2013-06-14 22:15:00,67.2,60.5,29.62,SW,216,0.0,1.0,79,0.00,,,0.01,0,Wunderground v.1.15,2013-06-15 03:15:00,
2013-06-14 22:20:00,67.0,60.3,29.62,SW,216,0.0,0.0,79,0.00,,,0.01,0,Wunderground v.1.15,2013-06-15 03:20:00,
2013-06-14 22:25:00,66.7,60.0,29.63,SW,216,0.0,1.0,79,0.00,,,0.01,0,Wunderground v.1.15,2013-06-15 03:25:00,
2013-06-14 22:30:00,66.6,59.9,29.63,SW,216,0.0,1.0,79,0.00,,,0.01,0,Wunderground v.1.15,2013-06-15 03:30:00,
2013-06-14 22:35:00,66.3,59.9,29.63,SW,216,1.0,2.0,80,0.00,,,0.01,0,Wunderground v.1.15,2013-06-15 03:35:00,
2013-06-14 22:40:00,66.3,59.9,29.63,SW,216,3.0,3.0,80,0.00,,,0.01,0,Wunderground v.1.15,2013-06-15 03:40:00,
2013-06-14 22:45:00,66.3,59.9,29.63,SW,216,0.0,3.0,80,0.00,,,0.01,0,Wunderground v.1.15,2013-06-15 03:45:00,
2013-06-14 22:50:00,66.3,59.9,29.64,SW,216,0.0,1.0,80,0.00,,,0.01,0,Wunderground v.1.15,2013-06-15 03:50:00,
2013-06-14 22:55:00,66.2,59.8,29.64,SW,216,2.0,3.0,80,0.00,,,0.01,0,Wunderground v.1.15,2013-06-15 03:55:00,
2013-06-14 23:00:00,65.8,59.5,29.64,SW,216,1.0,2.0,80,0.00,,,0.01,0,Wunderground v.1.15,2013-06-15 04:00:00,
2013-06-14 23:01:00,65.8,59.5,29.64,SW,216,2.0,2.0,80,0.00,,,0.01,0,Wunderground v.1.15,2013-06-15 04:01:00,
2013-06-14 23:06:00,65.4,59.4,29.64,SW,216,3.0,4.0,81,0.00,,,0.01,0,Wunderground v.1.15,2013-06-15 04:06:00,
2013-06-14 23:11:00,65.1,59.5,29.64,SW,216,3.0,3.0,82,0.00,,,0.01,0,Wunderground v.1.15,2013-06-15 04:11:00,
2013-06-14 23:16:00,64.9,59.6,29.64,SW,216,0.0,3.0,83,0.00,,,0.01,0,Wunderground v.1.15,2013-06-15 04:16:00,
2013-06-14 23:21:00,64.8,59.5,29.64,SW,216,0.0,1.0,83,0.00,,,0.01,0,Wunderground v.1.15,2013-06-15 04:21:00,
2013-06-14 23:26:00,64.8,59.5,29.64,SW,216,0.0,2.0,83,0.00,,,0.01,0,Wunderground v.1.15,2013-06-15 04:26:00,
2013-06-14 23:31:00,64.6,59.3,29.64,SW,216,0.0,0.0,83,0.00,,,0.01,0,Wunderground v.1.15,2013-06-15 04:31:00,
2013-06-14 23:36:00,64.3,59.4,29.64,SW,216,1.0,3.0,84,0.00,,,0.01,0,Wunderground v.1.15,2013-06-15 04:36:00,
2013-06-14 23:41:00,64.3,59.4,29.64,SW,216,0.0,1.0,84,0.00,,,0.01,0,Wunderground v.1.15,2013-06-15 04:41:00,
2013-06-14 23:46:00,64.4,59.8,29.62,WSW,252,2.0,5.0,85,0.00,,,0.01,0,Wunderground v.1.15,2013-06-15 04:46:00,
2013-06-14 23:51:00,65.5,61.2,29.62,NNW,331,2.0,6.0,86,0.00,,,0.01,0,Wunderground v.1.15,2013-06-15 04:51:00,
2013-06-14 23:56:00,67.2,63.2,29.62,NNW,347,1.0,8.0,87,0.00,,,0.01,0,Wunderground v.1.15,2013-06-15 04:56:00,